[[{"header":{"parameterUnit":"m.s-1","parameterCategory":1,"la1":30.2991,"la2":30.254,"lo1":-89.0895,"lo2":-89.0444,"dy":0.0017,"dx":0.0017,"nx":28,"ny":28,"refTime":"2023-10-24T09:00:00:Z","depth":0,"parameterNumber":2,"parameterNumberName":"U-component_of_WINDS"},"data":[0,0,0,0,0,0,0,0,0,0,0,0,0,0,0,0,0,0,0,0,0,0,0,0,0,0,0,0,0,0,0,0,0,0,0,0,0,0,0,0,0,0,0,0,0,0,0,0,0,0,0,0,0,0,0,0,0,0,-7.0465,-7.0467,0,-7.0674,-7.0676,-7.0679,-7.0687,-7.0685,-7.0682,-7.068,-7.0892,-7.09,-7.0908,0,0,0,0,0,0,0,0,0,0,0,0,0,-7.0073,-7.008,-7.0465,-7.0467,-7.047,-7.0673,-7.0676,-7.0679,-7.0688,-7.0685,-7.0682,-7.0679,-7.089,-7.0899,-7.0908,0,0,0,0,0,0,0,0,0,0,0,0,0,-7.0258,-7.0082,-7.0464,-7.0499,-7.0504,-7.0673,-7.0676,-7.068,-7.0688,-7.0684,-7.0681,-7.0677,-7.0886,-7.0898,-7.091,-7.1058,0,0,-7.0946,-7.0951,0,0,0,0,0,0,0,0,-7.0248,-7.0273,-7.0491,-7.0497,-7.0503,-7.0651,-7.0616,-7.0807,-7.0689,-7.0618,-7.068,-7.0675,-7.0815,-7.0832,-7.088,-7.1068,-7.1077,-7.0947,-7.0955,-7.096,-7.0963,0,0,0,0,0,0,0,-7.0235,-7.0264,-7.0547,-7.0494,-7.0501,-7.0504,-7.0526,-7.0652,-7.0735,-7.0624,-7.0625,-7.065,-7.0817,-7.0868,-7.0885,-7.108,-7.0947,-7.0958,-7.0965,-7.097,-7.1402,-7.1406,0,0,0,0,0,0,-7.0215,-7.0253,-7.0541,-7.0554,-7.0364,-7.0514,-7.0539,-7.0607,-7.0733,-7.0749,-7.0653,-7.065,-7.0849,-7.0871,-7.0892,-7.1074,-7.096,-7.0971,-7.0978,-7.1398,-7.1403,-7.1408,0,0,0,0,0,0,-7.0207,-7.0241,-7.0532,-7.0404,-7.0441,-7.0524,-7.0601,-7.0613,-7.0664,-7.0755,-7.077,-7.069,-7.0847,-7.0875,-7.1017,-7.1082,-7.0976,-7.0987,-7.1393,-7.14,-7.1405,-7.1439,0,0,0,0,0,0,-7.0196,-7.0238,-7.0295,-7.0405,-7.0448,-7.0654,-7.0605,-7.062,-7.0685,-7.0682,-7.0794,-7.0808,-7.0847,-7.0999,-7.1029,-7.1096,-7.0996,-7.1387,-7.1396,-7.1403,-7.1433,-7.1446,-7.1458,0,0,0,0,0,-7.0182,-7.0295,-7.0298,-7.0332,-7.0521,-7.0657,-7.0682,-7.0724,-7.069,-7.0748,-7.0807,-7.0805,-7.107,-7.1014,-7.1047,-7.1119,-7.1383,-7.1393,-7.1403,-7.1427,-7.1444,-7.1457,0,0,0,0,0,0,-7.0189,-7.031,-7.0314,-7.0467,-7.0552,-7.0659,-7.0733,-7.074,-7.0836,-7.0829,-7.0877,-7.0902,-7.1043,-7.1096,-7.103,-7.127,-7.1223,-7.124,-7.123,-7.1246,-7.1259,-7.1242,-7.1006,0,0,0,0,0,-7.0209,-7.031,-7.041,-7.0536,-7.0578,-7.0649,-7.0709,-7.0735,-7.0825,-7.086,-7.0929,-7.1016,-7.112,-7.1186,-7.1286,-7.1442,-7.1466,-7.1508,-7.152,-7.153,-7.1543,-7.163,-7.165,-7.144,-7.144,-7.144,0,0,-7.025,-7.0329,-7.0389,-7.0539,-7.0608,-7.0712,-7.0678,-7.0789,-7.0866,-7.0877,-7.1015,-7.1069,-7.117,-7.1319,-7.1388,-7.1367,-7.1607,-7.1542,-7.1549,-7.1558,-7.1642,-7.1662,-7.1679,-7.1446,-7.1445,-7.1444,0,0,-7.0378,-7.0448,-7.056,-7.063,-7.0736,-7.0782,-7.0809,-7.0916,-7.0952,-7.1092,-7.1103,-7.1196,-7.1372,-7.1443,-7.1503,-7.1661,-7.1663,-7.1692,-7.1756,-7.184,-7.1857,-7.1872,-7.1928,-7.1947,-7.1706,-7.1706,-7.1706,0,-7.0415,-7.0572,-7.0617,-7.0728,-7.0794,-7.081,-7.0924,-7.099,-7.1122,-7.1167,-7.1142,-7.1365,-7.1434,-7.1601,-7.1639,-7.1687,-7.172,-7.1678,-7.1851,-7.1866,-7.1881,-7.1935,-7.1956,-7.1709,-7.1708,-7.1708,-7.1708,0,-7.0613,-7.0721,-7.08,-7.0928,-7.1003,-7.1115,-7.1177,-7.1248,-7.1268,-7.1317,-7.1459,-7.1543,-7.166,-7.1702,-7.1722,-7.1873,-7.1856,-7.1841,-7.1794,-7.1903,-7.1954,-7.1975,-7.1713,-7.1712,-7.1711,-7.171,0,0,-7.0748,-7.0902,-7.093,-7.0989,-7.1107,-7.1192,-7.1306,-7.1422,-7.1481,-7.1573,-7.1669,-7.182,-7.1807,-7.1874,-7.1903,-7.1977,-7.2097,-7.1953,-7.1956,-7.1976,-7.2268,-7.2277,-7.2301,-7.21,-7.2104,-7.2107,-7.2259,0,-7.0887,-7.109,-7.1135,-7.1309,-7.141,-7.1429,-7.1528,-7.1612,-7.1661,-7.1755,-7.181,-7.1915,-7.1891,-7.1932,-7.2006,-7.2066,-7.2156,-7.2056,-7.2189,-7.2194,-7.2162,-7.2328,-7.2338,-7.2477,-7.228,-7.2283,-7.2286,0,-7.1077,-7.1174,-7.1358,-7.1465,-7.151,-7.1598,-7.1708,-7.1798,-7.1894,-7.1925,-7.2002,-7.2023,-7.2142,-7.2092,-7.2257,-7.2188,-7.2246,-7.2285,-7.2291,-7.2303,-7.2244,-7.2343,-7.2522,-7.2542,-7.2318,-7.2315,-7.2313,0,-7.1156,-7.1333,-7.1466,-7.1517,-7.1645,-7.1707,-7.1763,-7.1855,-7.1923,-7.202,-7.2064,-7.2174,-7.2234,-7.2318,-7.2369,-7.2328,-7.2531,-7.2484,-7.2559,-7.2558,-7.2599,-7.2595,-7.2788,-7.2639,-7.2639,-7.2638,-7.2638,0,-7.1306,-7.1418,-7.1504,-7.1586,-7.1712,-7.1764,-7.1887,-7.1944,-7.2026,-7.212,-7.2143,-7.223,-7.2293,-7.2389,-7.243,-7.2561,-7.2588,-7.2616,-7.2625,-7.2613,-7.2609,-7.265,-7.2641,-7.2644,-7.2643,-7.2642,-7.2641,0,-7.1414,-7.1476,-7.1623,-7.1734,-7.1764,-7.1852,-7.1947,-7.2027,-7.2079,-7.2197,-7.2228,-7.2308,-7.2423,-7.2483,-7.2626,-7.2654,-7.28,-7.2805,-7.2768,-7.2771,-7.2843,-7.2835,-7.3067,-7.31,-7.293,-7.2932,-7.2933,0,-7.1505,-7.1592,-7.1712,-7.1777,-7.1835,-7.1938,-7.2008,-7.2063,-7.2134,-7.2252,-7.2318,-7.2434,-7.253,-7.2712,-7.2784,-7.2894,-7.29,-7.2974,-7.2917,-7.2902,-7.29,-7.2894,-7.2903,-7.2983,-7.2985,-7.2986,-7.2987,0,-7.1659,-7.1686,-7.1785,-7.1897,-7.1979,-7.2069,-7.2158,-7.221,-7.228,-7.2359,-7.2477,-7.2551,-7.2698,-7.2813,-7.2929,-7.2988,-7.2999,-7.3006,-7.3029,-7.3016,-7.299,-7.3004,-7.2794,-7.2999,-7.2998,-7.2997,-7.2996,-7.2996,-7.1761,-7.1839,-7.1936,-7.2047,-7.212,-7.2203,-7.2285,-7.2347,-7.2447,-7.2571,-7.2598,-7.2723,-7.2819,-7.2976,-7.3038,-7.3137,-7.3121,-7.3155,-7.3163,-7.317,-7.3173,-7.2977,-7.3158,-7.3158,-7.3158,-7.3157,-7.3157,0,-7.1915,-7.198,-7.2081,-7.2205,-7.2293,-7.2298,-7.2397,-7.2469,-7.2579,-7.2668,-7.2762,-7.2899,-7.3011,-7.3093,-7.3208,-7.3271,-7.3279,-7.3299,-7.3294,-7.3307,-7.318,-7.3148,-7.3291,-7.3291,-7.329,-7.329,-7.329,-7.329,-7.2006,-7.2138,-7.2178,-7.2348,-7.2411,-7.2534,-7.259,-7.2668,-7.2739,-7.289,-7.2984,-7.3037,-7.3123,-7.3245,-7.3349,-7.337,-7.3411,-7.343,-7.3451,-7.333,-7.3316,-7.3303,-7.3273,-7.3439,-7.3439,-7.357,-7.3572,-7.3572]},{"header":{"parameterUnit":"m.s-1","parameterCategory":1,"la1":30.2991,"la2":30.254,"lo1":-89.0895,"lo2":-89.0444,"dy":0.0017,"dx":0.0017,"nx":28,"ny":28,"refTime":"2023-10-24T09:00:00:Z","depth":0,"parameterNumber":3,"parameterNumberName":"V-component_of_WINDS"},"data":[0,0,0,0,0,0,0,0,0,0,0,0,0,0,0,0,0,0,0,0,0,0,0,0,0,0,0,0,0,0,0,0,0,0,0,0,0,0,0,0,0,0,0,0,0,0,0,0,0,0,0,0,0,0,0,0,0,0,2.023,2.0232,0,2.0406,2.0408,2.041,2.0537,2.0538,2.0539,2.054,2.071,2.0713,2.0717,0,0,0,0,0,0,0,0,0,0,0,0,0,1.9992,1.9996,2.023,2.0232,2.0234,2.0406,2.0408,2.0411,2.0537,2.0538,2.0539,2.054,2.0709,2.0713,2.0717,0,0,0,0,0,0,0,0,0,0,0,0,0,2.0124,1.9997,2.023,2.0318,2.0328,2.0406,2.0409,2.0411,2.0536,2.0538,2.054,2.0541,2.0707,2.0712,2.0718,2.0718,0,0,2.0734,2.0736,0,0,0,0,0,0,0,0,2.0117,2.0133,2.0303,2.0312,2.0323,2.0452,2.0387,2.0514,2.0536,2.0457,2.054,2.0542,2.0622,2.0634,2.0663,2.0726,2.0733,2.0734,2.0737,2.074,2.0741,0,0,0,0,0,0,0,2.0108,2.0126,2.0299,2.0305,2.0318,2.0346,2.0366,2.0412,2.0528,2.0464,2.0473,2.0493,2.0628,2.0658,2.0668,2.0736,2.0734,2.0739,2.0742,2.0744,2.0809,2.0808,0,0,0,0,0,0,2.0086,2.0118,2.0294,2.0305,2.0222,2.0349,2.0372,2.0408,2.0528,2.0548,2.0492,2.0498,2.0648,2.0662,2.0675,2.0686,2.074,2.0745,2.0748,2.081,2.0809,2.0807,0,0,0,0,0,0,2.008,2.01,2.0287,2.0214,2.024,2.0351,2.0391,2.0411,2.0442,2.0549,2.0569,2.0502,2.065,2.0667,2.0708,2.0693,2.0747,2.0752,2.0812,2.081,2.0808,2.0705,0,0,0,0,0,0,2.0073,2.0098,2.0101,2.0213,2.0243,2.0319,2.039,2.0413,2.0452,2.0463,2.0564,2.0582,2.0653,2.0699,2.0713,2.0701,2.0756,2.0814,2.0811,2.0809,2.0711,2.07,2.0691,0,0,0,0,0,2.0064,2.0063,2.0101,2.0122,2.0251,2.0318,2.0335,2.0419,2.045,2.0454,2.0522,2.0579,2.0692,2.0702,2.0719,2.0709,2.0815,2.0812,2.0809,2.0715,2.0702,2.0691,0,0,0,0,0,0,1.9943,2.0079,2.0123,2.0159,2.0226,2.034,2.0347,2.0402,2.046,2.0467,2.0565,2.0587,2.0617,2.0666,2.0675,2.0716,2.0761,2.076,2.0683,2.0672,2.0662,2.0651,2.076,0,0,0,0,0,1.992,1.9967,2.0082,2.0102,2.0135,2.0234,2.0267,2.0326,2.0398,2.0427,2.0498,2.0564,2.0614,2.0645,2.0697,2.0717,2.0741,2.0718,2.0708,2.07,2.0699,2.0715,2.0706,2.0796,2.0796,2.0797,0,0,1.9874,1.9955,1.9977,2.008,2.014,2.0184,2.0258,2.03,2.0333,2.0432,2.0477,2.0531,2.061,2.0641,2.0657,2.0683,2.0679,2.0696,2.0688,2.0692,2.071,2.0702,2.0694,2.0794,2.0795,2.0795,0,0,1.9814,1.9879,1.9904,1.9963,2.0054,2.012,2.0125,2.0231,2.0272,2.0319,2.0395,2.0432,2.0517,2.0571,2.061,2.0569,2.0624,2.0582,2.0532,2.0546,2.0539,2.0533,2.052,2.0514,2.0581,2.0581,2.0581,0,1.9744,1.9817,1.9909,1.9949,1.9991,2.0086,2.0112,2.0162,2.0263,2.0289,2.0316,2.0426,2.0485,2.0531,2.0522,2.0549,2.0557,2.0573,2.0533,2.0528,2.0524,2.0513,2.0508,2.0575,2.0576,2.0577,2.0577,0,1.9728,1.9776,1.9785,1.9886,1.9929,1.996,2.0054,2.0086,2.014,2.0203,2.0249,2.0324,2.0394,2.0408,2.046,2.0461,2.0474,2.0515,2.0563,2.0509,2.05,2.0496,2.0568,2.057,2.0571,2.0573,0,0,1.9598,1.9749,1.9751,1.9798,1.9905,1.9943,1.9977,2.005,2.0076,2.014,2.0172,2.0242,2.0282,2.0325,2.0383,2.0395,2.036,2.0435,2.0439,2.0421,2.0367,2.0338,2.0331,2.0396,2.0395,2.0395,2.0362,0,1.9555,1.9629,1.9712,1.9755,1.9801,1.9891,1.9921,1.9988,2.0047,2.0092,2.0155,2.0204,2.0252,2.0279,2.0294,2.0361,2.0351,2.0364,2.0425,2.0426,2.0406,2.0327,2.0296,2.0261,2.0358,2.0358,2.0358,0,1.9517,1.9583,1.9631,1.9736,1.9758,1.9784,1.9858,1.99,1.9976,2.0018,2.0067,2.013,2.0169,2.0209,2.0263,2.027,2.0299,2.0335,2.0336,2.0347,2.0391,2.0338,2.0251,2.0247,2.0353,2.0353,2.0353,0,1.942,1.952,1.9563,1.96,1.9721,1.9738,1.9788,1.9867,1.9906,1.9968,1.9993,2.0057,2.0092,2.0139,2.0217,2.0238,2.0263,2.0309,2.0298,2.0296,2.0301,2.03,2.0221,2.0315,2.0315,2.0315,2.0315,0,1.9366,1.9393,1.9522,1.9548,1.958,1.9674,1.9701,1.9759,1.9829,1.9866,1.9945,1.9977,2.0077,2.012,2.018,2.0217,2.0231,2.0265,2.0281,2.026,2.0256,2.0282,2.0288,2.0314,2.0314,2.0314,2.0314,0,1.9265,1.9353,1.9406,1.9517,1.9546,1.9564,1.9658,1.9686,1.9749,1.9795,1.9811,1.9908,1.9964,2.0046,2.0124,2.0164,2.0192,2.0216,2.0168,2.0178,2.0163,2.0165,2.01,2.0097,2.0189,2.0188,2.0188,0,1.9227,1.9251,1.9365,1.9398,1.9448,1.9498,1.9539,1.963,1.9668,1.9758,1.9774,1.9836,1.9892,1.9975,2.0051,2.0111,2.0139,2.0112,2.0149,2.0127,2.0142,2.0141,2.0144,2.0104,2.0103,2.0102,2.0101,0,1.915,1.9193,1.9251,1.9323,1.937,1.943,1.9494,1.9515,1.962,1.9658,1.9718,1.9761,1.9843,1.9903,1.9974,2.0022,2.0079,2.0088,2.009,2.007,2.0042,2.0059,2.0147,2.009,2.0091,2.0092,2.0093,2.0093,1.9082,1.9108,1.9193,1.9255,1.9313,1.9371,1.9403,1.9471,1.9524,1.9601,1.965,1.9707,1.9782,1.9884,1.993,1.9974,1.9997,1.9998,1.9999,1.9998,1.9992,2.0032,1.9986,1.9986,1.9987,1.9987,1.9988,0,1.9012,1.9072,1.9127,1.9216,1.9264,1.9315,1.9388,1.9424,1.9475,1.9541,1.9595,1.9663,1.9722,1.9803,1.9867,1.9886,1.9914,1.99,1.9901,1.9912,1.9966,1.996,1.9877,1.9877,1.9877,1.9877,1.9877,1.9877,1.8981,1.9029,1.9081,1.9156,1.9215,1.9275,1.9313,1.9366,1.942,1.9494,1.9545,1.9599,1.9671,1.9741,1.9796,1.9818,1.9839,1.9818,1.9848,1.9897,1.9908,1.9917,1.9912,1.9821,1.9821,1.9791,1.979,1.979]}]]